GW7169 Weather Reports


time (UTC)temp
F
wind
direction
speed
knots
gust
knots
rain 1hr
in
rain 24hr
in
rain mn
in
humidity
%
barometer
mb
20260507121346 75 12 1.7 1.7 0.00 0.00 0.00 21 1016.6
20260507120845 75 111 0.0 0.0 0.00 0.00 0.00 21 1016.9
20260507120344 74 316 0.0 0.0 0.00 0.00 0.00 22 1016.9
20260507115845 74 51 0.9 0.9 0.00 0.00 0.00 22 1016.9
20260507115345 73 69 2.6 4.3 0.00 0.00 0.00 23 1016.9
20260507114844 74 68 3.5 4.3 0.00 0.00 0.00 22 1016.9
20260507114346 75 266 0.9 0.9 0.00 0.00 0.00 22 1016.9
20260507113851 74 83 4.3 5.2 0.00 0.00 0.00 23 1017.3
20260507113345 75 70 2.6 2.6 0.00 0.00 0.00 23 1017.3
20260507112845 74 3 0.0 0.0 0.00 0.00 0.00 23 1017.3
20260507112344 74 44 0.9 0.9 0.00 0.00 0.00 22 1017.3
20260507111844 76 61 0.9 0.9 0.00 0.00 0.00 22 1017.6
20260507111344 76 290 0.0 0.0 0.00 0.00 0.00 21 1017.3
20260507110845 76 341 0.9 0.9 0.00 0.00 0.00 23 1017.6
20260507110345 75 72 0.0 0.0 0.00 0.00 0.00 23 1017.6
20260507105845 74 246 0.9 1.7 0.00 0.00 0.00 24 1017.3
20260507105344 74 29 0.9 0.9 0.00 0.00 0.00 25 1017.6
20260507104845 73 76 0.9 0.9 0.00 0.00 0.00 26 1017.6
20260507104345 73 278 1.7 1.7 0.00 0.00 0.00 26 1017.6
20260507103844 73 284 1.7 1.7 0.00 0.00 0.00 26 1017.6
20260507103350 74 38 3.5 4.3 0.00 0.00 0.00 26 1017.9
20260507102846 74 37 0.9 0.9 0.00 0.00 0.00 26 1017.6
20260507102345 73 129 0.0 0.0 0.00 0.00 0.00 26 1017.6
20260507101844 72 30 0.0 0.0 0.00 0.00 0.00 27 1017.9
20260507101344 73 63 4.3 6.1 0.00 0.00 0.00 26 1017.9
20260507100844 72 353 0.9 0.9 0.00 0.00 0.00 28 1017.9
20260507100344 71 287 1.7 1.7 0.00 0.00 0.00 27 1017.9
20260507095845 71 64 0.0 0.0 0.00 0.00 0.00 27 1017.9
20260507095344 71 46 3.5 5.2 0.00 0.00 0.00 28 1017.9
20260507094846 71 13 1.7 1.7 0.00 0.00 0.00 30 1017.9
20260507094345 70 359 0.9 0.9 0.00 0.00 0.00 31 1017.9
20260507093845 70 346 0.9 0.9 0.00 0.00 0.00 31 1018.3
20260507093344 71 84 1.7 1.7 0.00 0.00 0.00 32 1018.3
20260507092844 71 24 2.6 2.6 0.00 0.00 0.00 31 1018.3
20260507092345 71 75 0.9 1.7 0.00 0.00 0.00 29 1018.6
20260507091845 70 256 2.6 2.6 0.00 0.00 0.00 31 1018.6
20260507091345 70 86 0.9 0.9 0.00 0.00 0.00 32 1018.6
20260507090844 69 61 1.7 1.7 0.00 0.00 0.00 35 1018.3
20260507090344 68 70 3.5 5.2 0.00 0.00 0.00 34 1018.6
20260507085844 69 63 3.5 4.3 0.00 0.00 0.00 33 1019.0
20260507085345 69 62 3.5 6.1 0.00 0.00 0.00 34 1018.6
20260507084845 69 243 1.7 2.6 0.00 0.00 0.00 35 1018.6
20260507084345 69 9 2.6 1.7 0.00 0.00 0.00 34 1019.0
20260507083846 69 20 0.9 0.9 0.00 0.00 0.00 34 1019.0
20260507083345 69 325 0.9 1.7 0.00 0.00 0.00 35 1019.0
20260507082844 69 1 0.9 0.9 0.00 0.00 0.00 35 1018.6
20260507082344 68 77 1.7 2.6 0.00 0.00 0.00 37 1019.3
20260507081845 67 331 0.9 0.9 0.00 0.00 0.00 38 1019.3
20260507081345 67 54 7.8 9.6 0.00 0.00 0.00 37 1019.0
20260507080844 67 58 0.9 0.9 0.00 0.00 0.00 38 1019.3
20260507080344 67 341 3.5 4.3 0.00 0.00 0.00 37 1019.3
20260507075845 68 119 0.9 1.7 0.00 0.00 0.00 35 1019.0
20260507075344 68 54 4.3 5.2 0.00 0.00 0.00 36 1019.0
20260507074845 68 173 1.7 2.6 0.00 0.00 0.00 36 1019.0
20260507074344 68 315 2.6 2.6 0.00 0.00 0.00 38 1019.3
20260507073844 67 50 0.0 0.0 0.00 0.00 0.00 39 1019.3
20260507073345 66 260 0.9 0.9 0.00 0.00 0.00 41 1019.0
20260507072845 66 53 1.7 2.6 0.00 0.00 0.00 40 1019.0
20260507072344 67 65 3.5 4.3 0.00 0.00 0.00 41 1019.0
20260507071844 67 71 0.9 0.9 0.00 0.00 0.00 40 1019.0
20260507071344 67 63 1.7 1.7 0.00 0.00 0.00 39 1019.0
20260507070844 67 20 0.0 0.0 0.00 0.00 0.00 40 1019.0
20260507070344 66 70 0.0 0.0 0.00 0.00 0.00 41 1019.3
20260507065845 67 73 1.7 2.6 0.00 0.00 0.00 40 1019.0
20260507065344 66 281 0.9 0.9 0.00 0.00 0.00 41 1019.0
20260507064844 66 11 0.9 0.9 0.00 0.00 0.00 41 1019.0
20260507064345 66 71 0.9 0.9 0.00 0.00 0.00 40 1019.0
20260507063844 65 120 0.9 0.9 0.00 0.00 0.00 41 1019.0
20260507063346 64 106 2.6 4.3 0.00 0.00 0.00 40 1019.0
20260507062845 65 66 1.7 1.7 0.00 0.00 0.00 41 1019.3
20260507062344 65 254 0.9 0.9 0.00 0.00 0.00 41 1019.0
20260507061844 65 68 0.0 0.0 0.00 0.00 0.00 41 1019.0
20260507061344 64 336 0.9 0.9 0.00 0.00 0.00 41 1019.0
20260507060844 64 100 0.9 0.9 0.00 0.00 0.00 42 1019.0
20260507060344 64 69 2.6 2.6 0.00 0.00 0.00 40 1019.0
20260507055845 64 63 0.9 0.9 0.00 0.00 0.00 44 1019.0
20260507055344 64 59 0.9 0.9 0.00 0.00 0.00 45 1019.0
20260507054844 64 211 0.9 2.6 0.00 0.00 0.00 46 1019.0
20260507054345 63 280 0.9 0.9 0.00 0.00 0.00 48 1018.6
20260507053844 63 49 0.9 0.9 0.00 0.00 0.00 49 1019.0
20260507053344 63 57 0.0 0.0 0.00 0.00 0.00 49 1019.3
20260507052845 64 28 0.9 0.9 0.00 0.00 0.00 48 1019.0
20260507052344 63 108 0.0 0.0 0.00 0.00 0.00 48 1019.0
20260507051845 62 81 0.0 0.0 0.00 0.00 0.00 50 1019.0
20260507051351 62 85 0.9 0.0 0.00 0.00 0.00 50 1019.0
20260507050845 62 57 0.0 0.0 0.00 0.00 0.00 51 1018.6
20260507050345 62 77 0.9 1.7 0.00 0.00 0.00 52 1018.6
20260507045845 61 53 0.9 0.9 0.00 0.00 0.00 52 1018.6
20260507045345 61 41 0.9 0.9 0.00 0.00 0.00 54 1018.6
20260507044844 61 46 0.0 0.0 0.00 0.00 0.00 53 1018.6
20260507044345 61 82 0.0 0.0 0.00 0.00 0.00 53 1018.6
20260507043844 60 78 0.9 1.7 0.00 0.00 0.00 55 1018.6
20260507043344 60 101 0.0 0.0 0.00 0.00 0.00 55 1018.6
20260507042844 60 102 0.0 0.0 0.00 0.00 0.00 55 1019.0
20260507042344 60 103 0.0 0.0 0.00 0.00 0.00 56 1018.6
20260507041844 60 112 0.0 0.0 0.00 0.00 0.00 55 1018.6
20260507040927 58 113 0.0 0.0 0.00 0.00 0.00 59 1018.6
20260507040344 58 112 0.0 0.0 0.00 0.00 0.00 60 1018.6
20260507035845 58 112 0.0 0.0 0.00 0.00 0.00 60 1018.3
20260507035344 58 112 0.0 0.0 0.00 0.00 0.00 60 1018.3
20260507034845 58 112 0.0 0.0 0.00 0.00 0.00 61 1018.3
20260507034344 57 112 0.0 0.0 0.00 0.00 0.00 61 1018.3
20260507033844 57 103 0.0 0.0 0.00 0.00 0.00 62 1017.9
20260507033344 56 99 0.0 0.0 0.00 0.00 0.00 63 1018.3
20260507032845 56 94 0.0 0.0 0.00 0.00 0.00 64 1017.9
20260507032344 56 94 0.0 0.0 0.00 0.00 0.00 65 1017.9
20260507031844 55 94 0.0 0.0 0.00 0.00 0.00 66 1017.9
20260507031345 54 92 0.0 0.0 0.00 0.00 0.00 67 1018.3
20260507030844 54 93 0.0 0.0 0.00 0.00 0.00 69 1017.9
20260507030345 53 92 0.0 0.0 0.00 0.00 0.00 70 1017.9
20260507025845 53 92 0.0 0.0 0.00 0.00 0.00 70 1017.9
20260507025344 53 92 0.0 0.0 0.00 0.00 0.00 71 1017.9
20260507024845 53 92 0.0 0.0 0.00 0.00 0.00 71 1017.9
20260507024345 53 92 0.0 0.0 0.00 0.00 0.00 71 1017.9
20260507023846 53 91 0.0 0.0 0.00 0.00 0.00 71 1017.9
20260507023345 53 91 0.0 0.0 0.00 0.00 0.00 70 1017.9
20260507022846 53 91 0.0 0.0 0.00 0.00 0.00 70 1017.9
20260507022344 53 91 0.0 0.0 0.00 0.00 0.00 70 1017.9
20260507021845 53 91 0.0 0.0 0.00 0.00 0.00 70 1017.9
20260507021344 53 91 0.0 0.0 0.00 0.00 0.00 70 1017.9
20260507020844 53 91 0.0 0.0 0.00 0.00 0.00 71 1017.6
20260507020345 53 91 0.0 0.0 0.00 0.00 0.00 71 1017.6
20260507015844 53 91 0.0 0.0 0.00 0.00 0.00 71 1017.9
20260507015344 53 91 0.0 0.0 0.00 0.00 0.00 70 1017.9
20260507014844 53 91 0.0 0.0 0.00 0.00 0.00 70 1017.9
20260507014344 53 91 0.0 0.0 0.00 0.00 0.00 70 1017.9
20260507013844 54 91 0.0 0.0 0.00 0.00 0.00 69 1017.6
20260507013344 54 92 0.0 0.0 0.00 0.00 0.00 69 1017.9
20260507012845 54 92 0.0 0.0 0.00 0.00 0.00 69 1017.9
20260507012344 53 92 0.0 0.0 0.00 0.00 0.00 69 1017.6
20260507011844 53 90 0.0 0.0 0.00 0.00 0.00 69 1017.6
20260507011346 53 90 0.0 0.0 0.00 0.00 0.00 69 1017.9
20260507010845 53 90 0.0 0.0 0.00 0.00 0.00 69 1017.6
20260507010344 53 91 0.0 0.0 0.00 0.00 0.00 70 1017.6
20260507005844 53 69 0.0 0.0 0.00 0.00 0.00 71 1017.6
20260507005346 53 69 0.0 0.0 0.00 0.00 0.00 71 1017.6
20260507004845 54 69 0.0 0.0 0.00 0.00 0.00 71 1017.6
20260507004345 54 69 0.0 0.0 0.00 0.00 0.00 70 1017.6
20260507003845 54 73 0.0 0.0 0.00 0.00 0.00 70 1017.6
20260507003345 54 75 0.0 0.0 0.00 0.00 0.00 69 1017.9
20260507002844 54 75 0.0 0.0 0.00 0.00 0.00 69 1017.6
20260507002345 54 74 0.0 0.0 0.00 0.00 0.00 68 1017.6
20260507001844 54 76 0.0 0.0 0.00 0.00 0.00 68 1017.6
20260507001347 55 73 0.0 0.0 0.00 0.00 0.00 67 1017.6
20260507000845 55 73 0.0 0.0 0.00 0.00 0.00 67 1017.3
20260507000344 55 73 0.0 0.0 0.00 0.00 0.00 66 1017.3
20260506235848 55 74 0.0 0.0 0.00 0.00 0.00 66 1017.6
20260506235346 55 74 0.0 0.0 0.00 0.00 0.00 65 1017.6
20260506234844 55 74 0.0 0.0 0.00 0.00 0.00 64 1017.3
20260506234345 56 70 0.0 0.0 0.00 0.00 0.00 63 1017.3
20260506233844 56 70 0.9 0.9 0.00 0.00 0.00 62 1017.3
20260506233347 56 80 0.9 0.9 0.00 0.00 0.00 62 1017.3
20260506232845 56 95 0.9 0.9 0.00 0.00 0.00 62 1017.3
20260506232345 56 72 0.9 0.9 0.00 0.00 0.00 62 1017.3
20260506231845 56 336 0.9 1.7 0.00 0.00 0.00 62 1017.3
20260506231344 56 338 0.9 1.7 0.00 0.00 0.00 61 1017.3
20260506230846 56 81 0.9 0.9 0.00 0.00 0.00 61 1017.6
20260506230345 57 83 0.9 1.7 0.00 0.00 0.00 61 1017.3
20260506225845 57 69 0.9 0.9 0.00 0.00 0.00 60 1017.3
20260506225344 57 61 0.9 0.9 0.00 0.00 0.00 60 1017.3
20260506224844 57 75 0.9 0.9 0.00 0.00 0.00 60 1017.3
20260506224345 57 64 0.9 0.0 0.00 0.00 0.00 60 1017.3
20260506223844 57 78 1.7 1.7 0.00 0.00 0.00 60 1017.3
20260506223345 57 70 0.9 0.9 0.00 0.00 0.00 60 1017.3
20260506222845 57 80 0.0 0.0 0.00 0.00 0.00 61 1017.3
20260506222344 57 81 0.0 0.0 0.00 0.00 0.00 61 1017.6
20260506221844 56 81 0.9 0.9 0.00 0.00 0.00 62 1017.3
20260506221344 56 85 0.0 0.0 0.00 0.00 0.00 63 1017.3
20260506220844 57 85 0.0 0.0 0.00 0.00 0.00 63 1017.3
20260506220344 57 85 0.0 0.0 0.00 0.00 0.00 63 1017.6
20260506215844 57 84 0.9 1.7 0.00 0.00 0.00 62 1017.3
20260506215346 57 64 0.0 0.0 0.00 0.00 0.00 61 1017.3
20260506214845 57 84 0.9 0.9 0.00 0.00 0.00 61 1017.6
20260506214344 57 84 0.0 0.0 0.00 0.00 0.00 60 1017.6
20260506213844 57 70 0.9 0.9 0.00 0.00 0.00 60 1017.6
20260506213345 57 89 0.9 0.9 0.00 0.00 0.00 60 1017.3
20260506212845 57 68 0.9 0.9 0.00 0.00 0.00 60 1017.6
20260506212344 57 77 0.0 0.9 0.00 0.00 0.00 60 1017.6
20260506211847 57 81 0.0 0.0 0.00 0.00 0.00 60 1017.9
20260506211344 58 75 0.9 0.0 0.00 0.00 0.00 59 1017.9
20260506210844 58 80 0.9 0.9 0.00 0.00 0.00 60 1017.6
20260506210345 58 77 0.9 0.9 0.00 0.00 0.00 60 1017.9
20260506205844 57 75 0.0 0.0 0.00 0.00 0.00 60 1017.6
20260506205344 57 76 0.0 0.0 0.00 0.00 0.00 61 1017.6
20260506204848 57 76 0.0 0.0 0.00 0.00 0.00 61 1017.6
20260506204348 58 76 0.0 0.0 0.00 0.00 0.00 60 1017.6
20260506203845 58 75 0.9 0.9 0.00 0.00 0.00 60 1017.6
20260506203344 58 73 0.0 0.0 0.00 0.00 0.00 60 1017.6
20260506202845 58 72 0.0 0.0 0.00 0.00 0.00 60 1017.6
20260506202345 58 95 0.0 0.0 0.00 0.00 0.00 59 1017.6
20260506201845 58 95 0.0 0.0 0.00 0.00 0.00 59 1017.6
20260506201345 58 24 0.0 0.0 0.00 0.00 0.00 59 1017.6
20260506200844 58 20 0.9 0.9 0.00 0.00 0.00 58 1017.6
20260506200345 58 54 0.9 0.9 0.00 0.00 0.00 58 1017.6
20260506195844 59 66 2.6 2.6 0.00 0.00 0.00 58 1017.6
20260506195346 59 77 0.9 0.9 0.00 0.00 0.00 57 1017.3
20260506194844 58 77 0.0 0.0 0.00 0.00 0.00 57 1017.6
20260506194345 58 95 1.7 1.7 0.00 0.00 0.00 58 1017.6
20260506193844 58 132 0.0 0.0 0.00 0.00 0.00 58 1017.6
20260506193345 59 134 0.0 0.0 0.00 0.00 0.00 58 1017.3
20260506192845 58 134 0.0 0.0 0.00 0.00 0.00 57 1017.6
20260506192345 58 93 1.7 2.6 0.00 0.00 0.00 58 1017.3
20260506191845 58 189 0.9 0.9 0.00 0.00 0.00 58 1017.3
20260506191344 59 182 0.9 1.7 0.00 0.00 0.00 57 1017.3
20260506190845 59 324 0.0 0.0 0.00 0.00 0.00 57 1017.3
20260506190344 59 230 1.7 4.3 0.00 0.00 0.00 57 1017.3
20260506185844 59 130 2.6 4.3 0.00 0.00 0.00 57 1017.3
20260506185345 59 233 2.6 6.1 0.00 0.00 0.00 56 1017.3
20260506184845 59 233 1.7 4.3 0.00 0.00 0.00 56 1017.3
20260506184344 59 303 1.7 4.3 0.00 0.00 0.00 55 1017.3
20260506183845 59 81 1.7 1.7 0.00 0.00 0.00 55 1017.3
20260506183345 59 331 1.7 1.7 0.00 0.00 0.00 54 1017.3
20260506182844 60 242 1.7 2.6 0.00 0.00 0.00 54 1017.3
20260506182346 60 84 0.9 0.9 0.00 0.00 0.00 54 1016.9
20260506181845 60 218 0.9 1.7 0.00 0.00 0.00 53 1016.9
20260506181345 60 104 0.0 0.0 0.00 0.00 0.00 53 1016.9
20260506180845 60 42 0.9 0.9 0.00 0.00 0.00 53 1016.9
20260506180345 60 256 0.0 0.9 0.00 0.00 0.00 53 1016.9
20260506175844 60 220 0.9 0.9 0.00 0.00 0.00 53 1016.9
20260506175344 60 208 0.9 0.0 0.00 0.00 0.00 56 1016.9
20260506174844 60 231 0.9 1.7 0.00 0.00 0.00 56 1016.6
20260506174345 60 208 0.0 0.0 0.00 0.00 0.00 55 1016.6
20260506173848 61 192 0.9 1.7 0.00 0.00 0.00 54 1016.6
20260506173345 61 210 0.9 0.9 0.00 0.00 0.00 54 1016.6
20260506172845 61 198 0.9 0.9 0.00 0.00 0.00 53 1016.6
20260506172344 61 221 0.9 0.9 0.00 0.00 0.00 53 1016.3
20260506171844 61 217 0.0 0.0 0.00 0.00 0.00 52 1016.6
20260506171344 61 233 0.0 0.0 0.00 0.00 0.00 52 1016.3
20260506170845 62 209 0.9 0.9 0.00 0.00 0.00 51 1016.3
20260506170345 62 232 0.0 0.9 0.00 0.00 0.00 51 1016.3
20260506165845 62 261 0.9 0.9 0.00 0.00 0.00 50 1016.3
20260506165345 62 83 0.9 0.9 0.00 0.00 0.00 50 1016.3
20260506164845 62 227 0.9 1.7 0.00 0.00 0.00 50 1016.3
20260506164346 62 223 0.0 0.0 0.00 0.00 0.00 49 1016.3
20260506163844 63 224 0.9 1.7 0.00 0.00 0.00 49 1015.9
20260506163346 63 242 0.0 0.9 0.00 0.00 0.00 48 1015.9
20260506162844 63 203 0.9 0.9 0.00 0.00 0.00 48 1015.9
20260506162344 63 274 0.0 0.0 0.00 0.00 0.00 48 1015.9
20260506161844 63 210 0.9 0.0 0.00 0.00 0.00 47 1015.9
20260506161346 63 265 1.7 1.7 0.00 0.00 0.00 47 1015.9
20260506160844 63 203 0.9 1.7 0.00 0.00 0.00 47 1015.9
20260506160344 64 212 0.9 0.9 0.00 0.00 0.00 46 1015.9
20260506155845 64 222 0.9 0.9 0.00 0.00 0.00 46 1015.9
20260506155345 64 235 0.9 0.9 0.00 0.00 0.00 45 1015.9
20260506154845 64 237 0.9 0.9 0.00 0.00 0.00 45 1015.9
20260506154344 64 221 0.0 0.0 0.00 0.00 0.00 45 1015.9
20260506153845 64 270 0.9 0.9 0.00 0.00 0.00 44 1015.6
20260506153344 65 226 0.9 0.9 0.00 0.00 0.00 44 1015.6
20260506152844 65 238 0.9 0.9 0.00 0.00 0.00 44 1015.9
20260506152345 65 209 0.0 0.0 0.00 0.00 0.00 43 1015.6
20260506151844 66 217 0.9 0.0 0.00 0.00 0.00 42 1015.9
20260506151346 67 239 0.0 0.0 0.00 0.00 0.00 41 1015.6
20260506150844 68 263 0.9 0.9 0.00 0.00 0.00 40 1015.6
20260506150346 68 142 0.9 1.7 0.00 0.00 0.00 39 1015.6
20260506145844 68 198 0.9 0.9 0.00 0.00 0.00 40 1015.6
20260506145345 68 195 1.7 2.6 0.00 0.00 0.00 40 1015.6
20260506144846 68 252 1.7 2.6 0.00 0.00 0.00 39 1015.6
20260506144346 68 234 0.9 0.9 0.00 0.00 0.00 40 1015.6
20260506143845 68 248 1.7 2.6 0.00 0.00 0.00 40 1015.6
20260506143346 68 267 0.9 0.9 0.00 0.00 0.00 39 1015.6
20260506142844 69 223 0.9 0.9 0.00 0.00 0.00 38 1015.6
20260506142344 69 236 0.9 0.9 0.00 0.00 0.00 38 1015.9
20260506141845 69 200 0.9 2.6 0.00 0.00 0.00 37 1015.6
20260506141345 69 168 0.9 0.9 0.00 0.00 0.00 37 1015.6
20260506140845 69 292 0.9 0.0 0.00 0.00 0.00 37 1015.6
20260506140347 68 271 0.9 0.9 0.00 0.00 0.00 38 1015.6
20260506135845 68 22 0.9 0.9 0.00 0.00 0.00 38 1015.6
20260506135345 68 215 0.0 0.0 0.00 0.00 0.00 37 1015.6
20260506134845 68 201 0.9 0.0 0.00 0.00 0.00 39 1015.2
20260506134344 68 324 1.7 1.7 0.00 0.00 0.00 37 1015.6
20260506133846 69 242 0.9 1.7 0.00 0.00 0.00 36 1015.6
20260506133345 68 229 1.7 2.6 0.00 0.00 0.00 36 1015.6
20260506132846 68 327 1.7 1.7 0.00 0.00 0.00 38 1015.6
20260506132344 67 356 0.9 0.9 0.00 0.00 0.00 38 1015.6
20260506131846 67 342 0.9 1.7 0.00 0.00 0.00 38 1015.6
20260506131345 67 280 0.0 0.0 0.00 0.00 0.00 37 1015.6
20260506130846 67 86 2.6 5.2 0.00 0.00 0.00 35 1015.6
20260506130344 68 44 1.7 1.7 0.00 0.00 0.00 34 1015.6
20260506125844 69 326 0.9 0.9 0.00 0.00 0.00 34 1015.9
20260506125345 69 32 0.9 0.9 0.00 0.00 0.00 33 1015.9
20260506124844 69 0 0.9 1.7 0.00 0.00 0.00 33 1015.9
20260506124345 69 68 1.7 1.7 0.00 0.00 0.00 32 1015.9
20260506123845 69 295 1.7 1.7 0.00 0.00 0.00 32 1015.9
20260506123348 69 174 0.0 0.0 0.00 0.00 0.00 32 1015.9
20260506122844 69 71 0.0 0.0 0.00 0.00 0.00 31 1015.9
20260506122344 70 322 0.9 0.9 0.00 0.00 0.00 31 1015.9
20260506121844 70 248 0.9 0.9 0.00 0.00 0.00 30 1015.9